2015-10-31 00:00:58 r, 19.43m,0000000002Hz,0000322688c,0000000.700s, 015.7C,00002191
2015-10-31 00:10:58 r, 19.34m,0000000001Hz,0000295408c,0000000.641s, 015.7C,00002191
2015-10-31 00:20:58 r, 19.33m,0000000002Hz,0000294513c,0000000.639s, 015.7C,00002191
2015-10-31 00:30:59 r, 19.20m,0000000001Hz,0000263227c,0000000.571s, 015.7C,00002191
2015-10-31 00:40:58 r, 19.12m,0000000002Hz,0000244628c,0000000.531s, 015.7C,00002191
2015-10-31 00:50:58 r, 19.06m,0000000002Hz,0000230321c,0000000.500s, 015.7C,00002191
2015-10-31 01:00:58 r, 18.70m,0000000003Hz,0000166098c,0000000.360s, 015.7C,00002191
2015-10-31 01:10:58 r, 18.61m,0000000003Hz,0000151773c,0000000.329s, 015.7C,00002191
2015-10-31 01:20:58 r, 18.53m,0000000004Hz,0000142972c,0000000.310s, 015.7C,00002191
2015-10-31 01:30:59 r, 18.40m,0000000003Hz,0000125242c,0000000.272s, 015.7C,00002191
2015-10-31 01:40:58 r, 18.10m,0000000005Hz,0000095063c,0000000.206s, 015.7C,00002191
2015-10-31 01:50:58 r, 18.00m,0000000005Hz,0000087475c,0000000.190s, 016.1C,00002191
2015-10-31 02:00:58 r, 17.51m,0000000009Hz,0000055648c,0000000.121s, 016.1C,00002191
2015-10-31 02:10:58 r, 17.54m,0000000008Hz,0000056605c,0000000.123s, 016.1C,00002191
2015-10-31 02:20:58 r, 17.61m,0000000007Hz,0000060631c,0000000.132s, 016.4C,00002191
2015-10-31 02:30:59 r, 17.46m,0000000008Hz,0000053033c,0000000.115s, 016.4C,00002191
2015-10-31 02:40:58 r, 17.34m,0000000009Hz,0000047145c,0000000.102s, 016.7C,00002191
2015-10-31 02:50:58 r, 17.40m,0000000009Hz,0000049958c,0000000.108s, 016.7C,00002191
2015-10-31 03:00:59 r, 17.38m,0000000009Hz,0000049142c,0000000.107s, 016.7C,00002191
2015-10-31 03:10:58 r, 17.33m,0000000009Hz,0000047031c,0000000.102s, 016.7C,00002191
2015-10-31 03:20:58 r, 17.19m,0000000011Hz,0000041313c,0000000.090s, 016.7C,00002191
2015-10-31 03:30:58 r, 16.86m,0000000015Hz,0000030280c,0000000.066s, 016.4C,00002191
2015-10-31 03:40:58 r, 16.91m,0000000014Hz,0000031786c,0000000.069s, 016.4C,00002191
2015-10-31 03:50:58 r, 16.79m,0000000017Hz,0000028617c,0000000.062s, 016.4C,00002191
2015-10-31 04:00:58 r, 17.06m,0000000012Hz,0000036776c,0000000.080s, 016.7C,00002191
2015-10-31 04:10:58 r, 17.09m,0000000012Hz,0000037493c,0000000.081s, 016.7C,00002191
2015-10-31 04:20:58 r, 17.42m,0000000009Hz,0000050797c,0000000.110s, 016.7C,00002191
2015-10-31 04:30:58 r, 17.56m,0000000008Hz,0000057614c,0000000.125s, 016.7C,00002191
2015-10-31 04:40:58 r, 17.63m,0000000007Hz,0000061455c,0000000.133s, 016.7C,00002191
2015-10-31 04:50:58 r, 17.31m,0000000010Hz,0000045836c,0000000.099s, 016.7C,00002191
2015-10-31 05:00:58 r, 16.91m,0000000014Hz,0000031821c,0000000.069s, 017.0C,00002191
2015-10-31 05:10:58 r, 16.90m,0000000014Hz,0000031580c,0000000.069s, 017.0C,00002191
2015-10-31 05:20:58 r, 17.04m,0000000013Hz,0000035944c,0000000.078s, 016.7C,00002191
2015-10-31 05:31:00 r, 17.08m,0000000012Hz,0000037220c,0000000.081s, 016.7C,00002191
2015-10-31 05:40:58 r, 17.28m,0000000011Hz,0000044931c,0000000.098s, 016.7C,00002191
2015-10-31 05:50:58 r, 17.17m,0000000012Hz,0000040569c,0000000.088s, 016.7C,00002191
2015-10-31 06:00:58 r, 17.11m,0000000012Hz,0000038271c,0000000.083s, 016.7C,00002191
2015-10-31 06:10:58 r, 17.30m,0000000010Hz,0000045736c,0000000.099s, 016.7C,00002191
2015-10-31 06:20:58 r, 17.39m,0000000010Hz,0000049560c,0000000.108s, 016.7C,00002191
2015-10-31 06:30:58 r, 17.33m,0000000010Hz,0000046634c,0000000.101s, 016.7C,00002191
2015-10-31 06:40:58 r, 17.45m,0000000009Hz,0000052497c,0000000.114s, 016.7C,00002191
2015-10-31 06:50:58 r, 17.44m,0000000009Hz,0000052143c,0000000.113s, 017.0C,00002191
2015-10-31 07:00:58 r, 17.79m,0000000006Hz,0000072041c,0000000.156s, 017.0C,00002191
2015-10-31 07:10:58 r, 17.52m,0000000008Hz,0000055818c,0000000.121s, 017.0C,00002191
2015-10-31 07:20:58 r, 16.78m,0000000016Hz,0000028375c,0000000.062s, 017.0C,00002191
2015-10-31 07:30:58 r, 15.50m,0000000052Hz,0000008711c,0000000.019s, 017.0C,00002191
2015-10-31 07:40:58 r, 13.39m,0000000373Hz,0000000000c,0000000.000s, 017.4C,00002191
2015-10-31 07:50:58 r, 11.70m,0000001770Hz,0000000000c,0000000.000s, 017.0C,00002191
2015-10-31 08:00:58 r, 09.56m,0000012717Hz,0000000000c,0000000.000s, 017.0C,00002191
2015-10-31 08:10:58 r, 08.25m,0000042442Hz,0000000000c,0000000.000s, 017.4C,00002191
2015-10-31 08:20:58 r, 07.56m,0000080379Hz,0000000000c,0000000.000s, 017.4C,00002191
2015-10-31 08:30:58 r, 07.06m,0000126679Hz,0000000000c,0000000.000s, 017.4C,00002191
2015-10-31 08:40:58 r, 00.00m,0000401094Hz,0000000000c,0000000.000s, 017.4C,00002191
2015-10-31 08:50:58 r, 06.06m,0000318137Hz,0000000000c,0000000.000s, 017.7C,00002191
2015-10-31 09:00:58 r, 06.45m,0000221802Hz,0000000000c,0000000.000s, 017.7C,00002191
2015-10-31 09:10:58 r, 05.87m,0000378896Hz,0000000000c,0000000.000s, 017.4C,00002191
2015-10-31 09:20:58 r, 00.00m,0000421693Hz,0000000000c,0000000.000s, 017.4C,00002191
2015-10-31 09:30:58 r, 00.00m,0000596781Hz,0000000000c,0000000.000s, 017.4C,00002191
2015-10-31 09:40:58 r, 00.00m,0000599894Hz,0000000000c,0000000.000s, 017.7C,00002191
2015-10-31 09:50:58 r, 00.00m,0000590299Hz,0000000000c,0000000.000s, 017.7C,00002191
2015-10-31 10:00:59 r, 06.11m,0000303325Hz,0000000000c,0000000.000s, 017.7C,00002191
2015-10-31 10:10:58 r, 00.00m,0000596779Hz,0000000000c,0000000.000s, 017.7C,00002191
2015-10-31 10:20:58 r, 00.00m,0000596764Hz,0000000000c,0000000.000s, 018.3C,00002191
2015-10-31 10:31:00 r, 00.00m,0000596644Hz,0000000000c,0000000.000s, 018.6C,00002191
2015-10-31 10:40:58 r, 00.00m,0000596738Hz,0000000000c,0000000.000s, 018.6C,00002191
2015-10-31 10:50:58 r, 00.00m,0000596646Hz,0000000000c,0000000.000s, 019.0C,00002191
2015-10-31 11:00:58 r, 00.00m,0000596550Hz,0000000000c,0000000.000s, 019.3C,00002191
2015-10-31 11:10:58 r, 00.00m,0000596364Hz,0000000000c,0000000.000s, 020.3C,00002191
2015-10-31 11:20:58 r, 00.00m,0000596375Hz,0000000000c,0000000.000s, 020.3C,00002191
2015-10-31 11:30:59 r, 00.00m,0000596320Hz,0000000000c,0000000.000s, 020.9C,00002191
2015-10-31 11:40:58 r, 00.00m,0000596271Hz,0000000000c,0000000.000s, 020.9C,00002191
2015-10-31 11:50:58 r, 00.00m,0000596362Hz,0000000000c,0000000.000s, 020.9C,00002191
2015-10-31 12:00:58 r, 00.00m,0000596408Hz,0000000000c,0000000.000s, 020.9C,00002191
2015-10-31 12:10:58 r, 00.00m,0000596387Hz,0000000000c,0000000.000s, 020.9C,00002191
2015-10-31 12:20:58 r, 00.00m,0000596324Hz,0000000000c,0000000.000s, 021.2C,00002191
2015-10-31 12:30:58 r, 00.00m,0000596295Hz,0000000000c,0000000.000s, 021.5C,00002191
2015-10-31 12:40:58 r, 00.00m,0000596292Hz,0000000000c,0000000.000s, 021.5C,00002191
2015-10-31 12:50:58 r, 00.00m,0000596367Hz,0000000000c,0000000.000s, 021.9C,00002191
2015-10-31 13:00:58 r, 00.00m,0000596312Hz,0000000000c,0000000.000s, 021.5C,00002191
2015-10-31 13:10:58 r, 00.00m,0000596324Hz,0000000000c,0000000.000s, 020.9C,00002191
2015-10-31 13:20:58 r, 00.00m,0000596411Hz,0000000000c,0000000.000s, 020.9C,00002191
2015-10-31 13:30:58 r, 00.00m,0000596438Hz,0000000000c,0000000.000s, 020.6C,00002191
2015-10-31 13:40:58 r, 00.00m,0000596405Hz,0000000000c,0000000.000s, 020.6C,00002191
2015-10-31 13:50:58 r, 00.00m,0000596415Hz,0000000000c,0000000.000s, 020.9C,00002191
2015-10-31 14:00:59 r, 00.00m,0000596386Hz,0000000000c,0000000.000s, 021.2C,00002191
2015-10-31 14:10:58 r, 00.00m,0000596403Hz,0000000000c,0000000.000s, 021.2C,00002191
2015-10-31 14:20:58 r, 00.00m,0000596332Hz,0000000000c,0000000.000s, 021.2C,00002191
2015-10-31 14:30:58 r, 00.00m,0000596375Hz,0000000000c,0000000.000s, 021.2C,00002191
2015-10-31 14:40:58 r, 00.00m,0000596409Hz,0000000000c,0000000.000s, 021.5C,00002191
2015-10-31 14:50:58 r, 00.00m,0000596332Hz,0000000000c,0000000.000s, 021.9C,00002191
2015-10-31 15:00:59 r, 00.00m,0000596284Hz,0000000000c,0000000.000s, 022.5C,00002191
2015-10-31 15:10:58 r, 00.00m,0000596314Hz,0000000000c,0000000.000s, 022.5C,00002191
2015-10-31 15:20:58 r, 00.00m,0000596287Hz,0000000000c,0000000.000s, 022.2C,00002191
2015-10-31 15:30:58 r, 00.00m,0000596304Hz,0000000000c,0000000.000s, 021.9C,00002191
2015-10-31 15:40:58 r, 00.00m,0000596378Hz,0000000000c,0000000.000s, 021.5C,00002191
2015-10-31 15:50:58 r, 00.00m,0000596396Hz,0000000000c,0000000.000s, 020.9C,00002191
2015-10-31 16:00:58 r, 00.00m,0000562798Hz,0000000000c,0000000.000s, 020.9C,00002191
2015-10-31 16:10:59 r, 00.00m,0000596458Hz,0000000000c,0000000.000s, 020.6C,00002191
2015-10-31 16:20:58 r, 00.00m,0000570562Hz,0000000000c,0000000.000s, 020.6C,00002191
2015-10-31 16:30:58 r, 00.00m,0000490747Hz,0000000000c,0000000.000s, 020.9C,00002191
2015-10-31 16:40:59 r, 00.00m,0000414243Hz,0000000000c,0000000.000s, 020.6C,00002191
2015-10-31 16:50:58 r, 00.00m,0000534628Hz,0000000000c,0000000.000s, 020.6C,00002191
2015-10-31 17:00:58 r, 00.00m,0000432173Hz,0000000000c,0000000.000s, 020.6C,00002191
2015-10-31 17:10:58 r, 05.94m,0000357275Hz,0000000000c,0000000.000s, 020.9C,00002191
2015-10-31 17:20:58 r, 06.16m,0000291186Hz,0000000000c,0000000.000s, 020.6C,00002191
2015-10-31 17:30:58 r, 05.81m,0000399630Hz,0000000000c,0000000.000s, 020.9C,00002191
2015-10-31 17:40:58 r, 06.89m,0000148985Hz,0000000000c,0000000.000s, 020.9C,00002191
2015-10-31 17:50:58 r, 07.66m,0000072968Hz,0000000000c,0000000.000s, 020.9C,00002191
2015-10-31 18:00:58 r, 07.51m,0000084245Hz,0000000000c,0000000.000s, 020.6C,00002191
2015-10-31 18:10:59 r, 08.43m,0000036076Hz,0000000000c,0000000.000s, 020.6C,00002191
2015-10-31 18:20:58 r, 09.35m,0000015344Hz,0000000000c,0000000.000s, 020.6C,00002191
2015-10-31 18:30:58 r, 11.33m,0000002493Hz,0000000000c,0000000.000s, 020.6C,00002191
2015-10-31 18:40:59 r, 14.16m,0000000183Hz,0000000000c,0000000.000s, 020.6C,00002191
2015-10-31 18:50:58 r, 16.01m,0000000034Hz,0000013883c,0000000.030s, 020.3C,00002191
2015-10-31 19:00:58 r, 18.31m,0000000004Hz,0000114927c,0000000.249s, 020.3C,00002191
2015-10-31 19:10:58 r, 19.04m,0000000002Hz,0000226556c,0000000.492s, 020.3C,00002191
2015-10-31 19:20:58 r, 19.69m,0000000001Hz,0000413686c,0000000.898s, 020.3C,00002191
2015-10-31 19:30:58 r, 19.71m,0000000001Hz,0000421673c,0000000.915s, 020.3C,00002191
2015-10-31 19:40:58 r, 19.72m,0000000001Hz,0000424440c,0000000.921s, 020.3C,00002191
2015-10-31 19:50:58 r, 20.02m,0000000001Hz,0000557031c,0000001.209s, 019.9C,00002191
2015-10-31 20:00:58 r, 19.55m,0000000001Hz,0000362961c,0000000.788s, 019.6C,00002191
2015-10-31 20:10:58 r, 19.93m,0000000001Hz,0000510695c,0000001.108s, 019.6C,00002191
2015-10-31 20:20:58 r, 20.00m,0000000000Hz,0000546404c,0000001.186s, 019.6C,00002191
2015-10-31 20:30:58 r, 20.08m,0000000001Hz,0000587565c,0000001.275s, 019.3C,00002191
2015-10-31 20:40:59 r, 20.04m,0000000001Hz,0000565505c,0000001.227s, 019.3C,00002191
2015-10-31 20:50:58 r, 20.03m,0000000001Hz,0000560630c,0000001.217s, 019.3C,00002191
2015-10-31 21:00:58 r, 19.74m,0000000001Hz,0000431055c,0000000.935s, 019.3C,00002191
2015-10-31 21:10:58 r, 19.86m,0000000001Hz,0000478966c,0000001.039s, 019.0C,00002191
2015-10-31 21:20:58 r, 19.87m,0000000001Hz,0000482842c,0000001.048s, 019.0C,00002191
2015-10-31 21:30:58 r, 19.93m,0000000001Hz,0000509672c,0000001.106s, 019.0C,00002191
2015-10-31 21:40:58 r, 19.57m,0000000001Hz,0000368349c,0000000.799s, 019.0C,00002191
2015-10-31 21:50:58 r, 19.84m,0000000001Hz,0000467589c,0000001.015s, 019.0C,00002191
2015-10-31 22:00:58 r, 19.73m,0000000001Hz,0000428813c,0000000.931s, 019.0C,00002191
2015-10-31 22:10:58 r, 20.14m,0000000001Hz,0000620269c,0000001.346s, 019.0C,00002191
2015-10-31 22:20:58 r, 19.61m,0000000001Hz,0000384854c,0000000.835s, 019.0C,00002191
2015-10-31 22:30:58 r, 19.57m,0000000001Hz,0000369540c,0000000.802s, 018.6C,00002191
2015-10-31 22:40:58 r, 19.65m,0000000002Hz,0000399277c,0000000.866s, 018.6C,00002191
2015-10-31 22:50:58 r, 19.75m,0000000001Hz,0000432840c,0000000.939s, 018.6C,00002191
2015-10-31 23:00:58 r, 19.73m,0000000001Hz,0000423125c,0000000.918s, 018.6C,00002191
2015-10-31 23:10:58 r, 19.82m,0000000001Hz,0000461709c,0000001.002s, 018.6C,00002191
2015-10-31 23:20:58 r, 19.81m,0000000001Hz,0000457120c,0000000.992s, 018.6C,00002191
2015-10-31 23:30:58 r, 19.50m,0000000001Hz,0000346335c,0000000.752s, 018.6C,00002191
2015-10-31 23:40:58 r, 19.53m,0000000001Hz,0000356002c,0000000.773s, 018.6C,00002191
2015-10-31 23:50:58 r, 19.41m,0000000001Hz,0000321519c,0000000.698s, 018.3C,00002191
